GSAT0101 (GALILEO-PFM)

Last updated on Wed Oct 29 2025 00:02:34 GMT+0000 (Coordinated Universal Time)

1 37846U 11060A 25301.14733293 -.00000068 00000+0 00000+0 0 9992 2 37846 57.0633 348.0587 0001753 296.7883 63.2587 1.70475755 87162
UTC large
Height (km)
Speed (km/s)
/
Latitude / Longitude
Inclination (degrees)
Orbital Period (minutes)
Azimuth
Elevation
Range (km)
Doppler Factor

Next 0 passes for location: London (51.5072 / 0.1276)

Sorry there are no passes over London.